LGL8211 ELLX-LFMT

Flight info

Callsign LGL8211
Flight time 1h 30m
Altitude 23000
Route GTQ A242 POGOL DCT LASAT DCT MOROK DCT GILIR DCT GEVEA DCT INCUS DCT BALSI DCT ETIDO DCT KURIR DCT MTL DCT MOLEN DCT NG
Aircraft DH8D/M-SDE2E3FGRY/H

Departure

Time 2026-04-30 13:32
Airport Luxembourg-Findel International Airport (ELLX)

Arrival

Time 2026-04-30 15:03
Airport Montpellier-Méditerranée Airport (LFMT)
Time Latitude Longitude Altitude Speed Heading
2026-04-30 12:52 49.63207 6.21339 1242 ft 0 kts 60°
2026-04-30 13:20 49.63205 6.21333 1242 ft 2 kts 62°
2026-04-30 13:21 49.63198 6.21307 1242 ft 3 kts 85°
2026-04-30 13:21 49.63201 6.21279 1242 ft 3 kts 119°
2026-04-30 13:21 49.63214 6.21256 1242 ft 3 kts 144°
2026-04-30 13:22 49.63222 6.21248 1242 ft 0 kts 150°
2026-04-30 13:25 49.63148 6.21313 1242 ft 7 kts 152°
2026-04-30 13:26 49.62995 6.21381 1242 ft 10 kts 242°
2026-04-30 13:26 49.62926 6.21157 1242 ft 12 kts 246°
2026-04-30 13:27 49.62860 6.20948 1242 ft 12 kts 243°
2026-04-30 13:28 49.62718 6.20648 1242 ft 12 kts 215°
2026-04-30 13:28 49.62587 6.20449 1242 ft 11 kts 231°
2026-04-30 13:28 49.62524 6.20336 1242 ft 17 kts 230°
2026-04-30 13:29 49.62391 6.19998 1242 ft 20 kts 240°
2026-04-30 13:29 49.62255 6.19636 1242 ft 14 kts 241°
2026-04-30 13:30 49.62096 6.19658 1242 ft 8 kts 105°
2026-04-30 13:31 49.62102 6.19700 1242 ft 0 kts 62°
2026-04-30 13:31 49.62100 6.19693 1242 ft 0 kts 62°
2026-04-30 13:32 49.62535 6.20863 1250 ft 125 kts 58°
2026-04-30 13:32 49.63593 6.23234 2581 ft 133 kts 63°
2026-04-30 13:33 49.63392 6.26044 4141 ft 128 kts 119°
2026-04-30 13:33 49.62347 6.28187 5388 ft 130 kts 123°
2026-04-30 13:34 49.61726 6.29351 5812 ft 146 kts 124°
2026-04-30 13:34 49.59489 6.33382 7532 ft 174 kts 127°
2026-04-30 13:35 49.58671 6.34817 8155 ft 179 kts 127°
2026-04-30 13:35 49.56982 6.37744 9512 ft 187 kts 128°
2026-04-30 13:36 49.54837 6.40189 10877 ft 199 kts 147°
2026-04-30 13:36 49.53585 6.41146 11529 ft 203 kts 148°
2026-04-30 13:36 49.50979 6.43054 12786 ft 210 kts 149°
2026-04-30 13:37 49.49639 6.44011 13384 ft 214 kts 149°
2026-04-30 13:37 49.46900 6.45921 14543 ft 218 kts 150°
2026-04-30 13:38 49.44118 6.47839 15601 ft 222 kts 150°
2026-04-30 13:38 49.42701 6.48820 16102 ft 224 kts 150°
2026-04-30 13:38 49.39820 6.50808 17066 ft 228 kts 149°
2026-04-30 13:39 49.36889 6.52830 17976 ft 232 kts 149°
2026-04-30 13:39 49.33915 6.54880 18824 ft 236 kts 149°
2026-04-30 13:40 49.32411 6.55918 19231 ft 238 kts 149°
2026-04-30 13:40 49.30910 6.56953 19617 ft 240 kts 149°
2026-04-30 13:40 49.29382 6.58006 19991 ft 242 kts 149°
2026-04-30 13:40 49.27841 6.59065 20357 ft 244 kts 149°
2026-04-30 13:41 49.26281 6.60136 20720 ft 245 kts 149°
2026-04-30 13:41 49.24716 6.61211 21071 ft 247 kts 149°
2026-04-30 13:41 49.23129 6.62257 21406 ft 251 kts 152°
2026-04-30 13:41 49.21447 6.63065 21734 ft 255 kts 158°
2026-04-30 13:42 49.19717 6.63720 22061 ft 257 kts 160°
2026-04-30 13:42 49.17969 6.64350 22372 ft 259 kts 160°
2026-04-30 13:42 49.14460 6.65628 22965 ft 262 kts 159°
2026-04-30 13:43 49.12675 6.66297 23157 ft 268 kts 159°
2026-04-30 13:43 49.10836 6.67004 23226 ft 277 kts 159°
2026-04-30 13:43 49.08938 6.67741 23263 ft 287 kts 159°
2026-04-30 13:43 49.06976 6.68501 23277 ft 296 kts 159°
2026-04-30 13:44 49.04954 6.69275 23281 ft 305 kts 160°
2026-04-30 13:44 49.02873 6.70065 23282 ft 313 kts 160°
2026-04-30 13:44 49.00743 6.70867 23282 ft 319 kts 160°
2026-04-30 13:44 48.98577 6.71563 23278 ft 328 kts 166°
2026-04-30 13:45 48.93917 6.71606 23280 ft 343 kts 178°
2026-04-30 13:45 48.91531 6.71395 23277 ft 346 kts 178°
2026-04-30 13:45 48.89122 6.71221 23275 ft 349 kts 177°
2026-04-30 13:46 48.86690 6.71097 23274 ft 352 kts 176°
2026-04-30 13:46 48.84240 6.71009 23273 ft 354 kts 176°
2026-04-30 13:46 48.81774 6.70933 23272 ft 356 kts 176°
2026-04-30 13:46 48.79299 6.70856 23272 ft 358 kts 176°
2026-04-30 13:47 48.76815 6.70767 23270 ft 359 kts 176°
2026-04-30 13:47 48.74347 6.70669 23269 ft 360 kts 176°
2026-04-30 13:47 48.71849 6.70567 23266 ft 362 kts 176°
2026-04-30 13:47 48.69338 6.70466 23259 ft 363 kts 176°
2026-04-30 13:48 48.66814 6.70366 23255 ft 363 kts 176°
2026-04-30 13:48 48.64297 6.70268 23249 ft 364 kts 176°
2026-04-30 13:48 48.61768 6.70170 23242 ft 365 kts 176°
2026-04-30 13:48 48.59238 6.70072 23238 ft 364 kts 176°
2026-04-30 13:49 48.56710 6.69974 23237 ft 364 kts 176°
2026-04-30 13:49 48.54184 6.69876 23236 ft 365 kts 176°
2026-04-30 13:49 48.51687 6.69781 23234 ft 365 kts 176°
2026-04-30 13:49 48.49153 6.69685 23233 ft 365 kts 176°
2026-04-30 13:50 48.46621 6.69590 23232 ft 365 kts 176°
2026-04-30 13:50 48.41543 6.69397 23230 ft 366 kts 176°
2026-04-30 13:50 48.39013 6.69301 23229 ft 366 kts 176°
2026-04-30 13:51 48.36469 6.69202 23228 ft 366 kts 176°
2026-04-30 13:51 48.33931 6.69103 23228 ft 366 kts 176°
2026-04-30 13:51 48.31390 6.69004 23227 ft 366 kts 176°
2026-04-30 13:51 48.28853 6.68905 23225 ft 366 kts 176°
2026-04-30 13:52 48.26350 6.68809 23224 ft 366 kts 176°
2026-04-30 13:52 48.23808 6.68712 23221 ft 366 kts 176°
2026-04-30 13:52 48.21267 6.68616 23216 ft 366 kts 176°
2026-04-30 13:52 48.18720 6.68518 23214 ft 366 kts 176°
2026-04-30 13:53 48.16181 6.68422 23212 ft 366 kts 176°
2026-04-30 13:53 48.13641 6.68325 23210 ft 366 kts 176°
2026-04-30 13:53 48.11104 6.68224 23207 ft 366 kts 176°
2026-04-30 13:53 48.08558 6.68122 23203 ft 366 kts 176°
2026-04-30 13:54 48.06049 6.68022 23200 ft 366 kts 176°
2026-04-30 13:54 48.03552 6.67926 23198 ft 366 kts 176°
2026-04-30 13:54 48.01013 6.67830 23195 ft 366 kts 176°
2026-04-30 13:54 47.98478 6.67734 23197 ft 365 kts 176°
2026-04-30 13:55 47.95942 6.67643 23195 ft 365 kts 176°
2026-04-30 13:55 47.93412 6.67554 23194 ft 365 kts 176°
2026-04-30 13:55 47.90872 6.67461 23193 ft 365 kts 176°
2026-04-30 13:55 47.88340 6.67365 23192 ft 366 kts 176°
2026-04-30 13:56 47.85833 6.67268 23191 ft 366 kts 177°
2026-04-30 13:56 47.83298 6.67172 23191 ft 366 kts 177°
2026-04-30 13:56 47.80762 6.67079 23190 ft 366 kts 177°
2026-04-30 13:56 47.78222 6.66985 23189 ft 366 kts 177°
2026-04-30 13:57 47.75685 6.66889 23189 ft 366 kts 177°
2026-04-30 13:57 47.73152 6.66792 23187 ft 366 kts 177°
2026-04-30 13:57 47.70614 6.66695 23186 ft 366 kts 177°
2026-04-30 13:57 47.68072 6.66599 23185 ft 366 kts 177°
2026-04-30 13:58 47.65539 6.66505 23185 ft 366 kts 177°
2026-04-30 13:58 47.60491 6.66318 23185 ft 366 kts 177°
2026-04-30 13:58 47.57954 6.66224 23185 ft 366 kts 177°
2026-04-30 13:59 47.55420 6.66130 23185 ft 366 kts 177°
2026-04-30 13:59 47.52879 6.66036 23185 ft 366 kts 177°
2026-04-30 13:59 47.50344 6.65947 23185 ft 366 kts 177°
2026-04-30 13:59 47.47805 6.65858 23185 ft 366 kts 177°
2026-04-30 14:00 47.45259 6.65765 23184 ft 366 kts 177°
2026-04-30 14:00 47.40238 6.65045 23178 ft 372 kts 193°
2026-04-30 14:00 47.37893 6.63395 23184 ft 377 kts 210°
2026-04-30 14:01 47.35811 6.61037 23188 ft 378 kts 218°
2026-04-30 14:01 47.33855 6.58456 23186 ft 379 kts 220°
2026-04-30 14:01 47.31900 6.55852 23185 ft 379 kts 219°
2026-04-30 14:01 47.29939 6.53295 23184 ft 378 kts 219°
2026-04-30 14:02 47.27947 6.50764 23183 ft 378 kts 218°
2026-04-30 14:02 47.25945 6.48264 23182 ft 378 kts 217°
2026-04-30 14:02 47.23934 6.45773 23180 ft 378 kts 217°
2026-04-30 14:02 47.21927 6.43290 23180 ft 378 kts 217°
2026-04-30 14:03 47.19923 6.40805 23180 ft 378 kts 217°
2026-04-30 14:03 47.17947 6.38349 23180 ft 378 kts 217°
2026-04-30 14:03 47.15947 6.35863 23179 ft 377 kts 218°
2026-04-30 14:03 47.13926 6.33349 23178 ft 377 kts 218°
2026-04-30 14:04 47.11935 6.30871 23178 ft 377 kts 218°
2026-04-30 14:04 47.09936 6.28385 23177 ft 377 kts 218°
2026-04-30 14:04 47.07907 6.25955 23173 ft 376 kts 213°
2026-04-30 14:04 47.05634 6.24138 23170 ft 372 kts 197°
2026-04-30 14:05 47.03145 6.23262 23170 ft 367 kts 184°
2026-04-30 14:05 47.00647 6.22935 23169 ft 366 kts 179°
2026-04-30 14:05 46.98112 6.22713 23169 ft 366 kts 179°
2026-04-30 14:05 46.95584 6.22471 23169 ft 366 kts 180°
2026-04-30 14:06 46.93054 6.22180 23169 ft 366 kts 181°
2026-04-30 14:06 46.87987 6.21501 23168 ft 366 kts 181°
2026-04-30 14:07 46.82929 6.20797 23168 ft 366 kts 181°
2026-04-30 14:07 46.80399 6.20454 23166 ft 366 kts 181°
2026-04-30 14:07 46.77872 6.20117 23160 ft 366 kts 182°
2026-04-30 14:08 46.72847 6.19448 23155 ft 366 kts 182°
2026-04-30 14:08 46.70385 6.19122 23154 ft 366 kts 182°
2026-04-30 14:08 46.65328 6.18454 23153 ft 366 kts 182°
2026-04-30 14:09 46.62806 6.18121 23153 ft 365 kts 182°
2026-04-30 14:09 46.60224 6.17782 23153 ft 365 kts 182°
2026-04-30 14:09 46.55443 6.17154 23153 ft 365 kts 182°
2026-04-30 14:10 46.52969 6.16826 23153 ft 365 kts 182°
2026-04-30 14:10 46.50447 6.16496 23154 ft 365 kts 182°
2026-04-30 14:10 46.47921 6.16166 23154 ft 365 kts 182°
2026-04-30 14:10 46.45437 6.15841 23154 ft 365 kts 182°
2026-04-30 14:11 46.42913 6.15509 23155 ft 364 kts 182°
2026-04-30 14:11 46.40398 6.15178 23155 ft 364 kts 182°
2026-04-30 14:11 46.37877 6.14850 23155 ft 364 kts 182°
2026-04-30 14:11 46.35363 6.14525 23156 ft 364 kts 182°
2026-04-30 14:12 46.32842 6.14197 23156 ft 364 kts 182°
2026-04-30 14:12 46.30433 6.13882 23156 ft 364 kts 182°
2026-04-30 14:12 46.27886 6.13549 23156 ft 364 kts 182°
2026-04-30 14:12 46.26222 6.13331 23157 ft 364 kts 182°
2026-04-30 14:13 46.22896 6.12819 23157 ft 364 kts 184°
2026-04-30 14:13 46.20395 6.12291 23157 ft 364 kts 186°
2026-04-30 14:13 46.17894 6.11691 23158 ft 364 kts 187°
2026-04-30 14:13 46.15410 6.11068 23158 ft 364 kts 187°
2026-04-30 14:14 46.12915 6.10454 23157 ft 364 kts 187°
2026-04-30 14:14 46.10421 6.09868 23158 ft 364 kts 186°
2026-04-30 14:14 46.07928 6.09306 23158 ft 364 kts 186°
2026-04-30 14:14 46.05459 6.08763 23158 ft 364 kts 186°
2026-04-30 14:15 46.02968 6.08222 23158 ft 364 kts 186°
2026-04-30 14:15 46.00526 6.07690 23157 ft 364 kts 186°
2026-04-30 14:15 45.98038 6.07146 23156 ft 364 kts 186°
2026-04-30 14:15 45.95540 6.06596 23156 ft 364 kts 186°
2026-04-30 14:16 45.93042 6.06045 23157 ft 363 kts 186°
2026-04-30 14:16 45.90551 6.05495 23157 ft 363 kts 186°
2026-04-30 14:16 45.88063 6.04947 23148 ft 362 kts 186°
2026-04-30 14:16 45.85593 6.04401 23162 ft 359 kts 186°
2026-04-30 14:17 45.83128 6.03858 23159 ft 360 kts 186°
2026-04-30 14:17 45.80686 6.03318 23156 ft 361 kts 186°
2026-04-30 14:17 45.78212 6.02770 23148 ft 361 kts 186°
2026-04-30 14:17 45.75726 6.02220 23133 ft 362 kts 186°
2026-04-30 14:18 45.73245 6.01671 23124 ft 363 kts 186°
2026-04-30 14:18 45.70759 6.01124 23118 ft 363 kts 186°
2026-04-30 14:18 45.65772 6.00034 23111 ft 363 kts 186°
2026-04-30 14:19 45.60817 5.98943 23107 ft 363 kts 186°
2026-04-30 14:19 45.58320 5.98394 23107 ft 363 kts 186°
2026-04-30 14:19 45.55832 5.97851 23107 ft 363 kts 186°
2026-04-30 14:20 45.53336 5.97308 23107 ft 363 kts 186°
2026-04-30 14:20 45.50846 5.96761 23106 ft 363 kts 187°
2026-04-30 14:20 45.46245 5.93962 23112 ft 365 kts 216°
2026-04-30 14:21 45.44384 5.91521 23116 ft 366 kts 224°
2026-04-30 14:21 45.42647 5.88935 23115 ft 366 kts 225°
2026-04-30 14:21 45.39133 5.83706 23114 ft 366 kts 224°
2026-04-30 14:22 45.37359 5.81138 23114 ft 366 kts 224°
2026-04-30 14:22 45.33769 5.76025 23118 ft 365 kts 224°
2026-04-30 14:22 45.31978 5.73485 23120 ft 365 kts 224°
2026-04-30 14:23 45.28420 5.68430 23123 ft 364 kts 224°
2026-04-30 14:23 45.24855 5.63362 23125 ft 364 kts 224°
2026-04-30 14:24 45.21286 5.58291 23127 ft 363 kts 224°
2026-04-30 14:24 45.19507 5.55766 23126 ft 363 kts 224°
2026-04-30 14:25 45.15949 5.50727 23126 ft 362 kts 224°
2026-04-30 14:25 45.12414 5.45730 23127 ft 361 kts 224°
2026-04-30 14:26 45.08865 5.40720 23127 ft 361 kts 224°
2026-04-30 14:26 45.07091 5.38222 23127 ft 360 kts 224°
2026-04-30 14:26 45.03547 5.33238 23128 ft 360 kts 224°
2026-04-30 14:27 45.01774 5.30749 23128 ft 359 kts 224°
2026-04-30 14:27 45.00027 5.28299 23128 ft 359 kts 224°
2026-04-30 14:27 44.98258 5.25819 23128 ft 359 kts 224°
2026-04-30 14:28 44.94727 5.20873 23129 ft 358 kts 224°
2026-04-30 14:28 44.92958 5.18396 23129 ft 358 kts 224°
2026-04-30 14:28 44.91193 5.15929 23129 ft 358 kts 224°
2026-04-30 14:28 44.89459 5.13507 23130 ft 357 kts 224°
2026-04-30 14:29 44.85929 5.08594 23130 ft 357 kts 224°
2026-04-30 14:29 44.83003 5.04524 23131 ft 357 kts 224°
2026-04-30 14:30 44.77145 4.96397 23131 ft 356 kts 224°
2026-04-30 14:31 44.73618 4.91525 23132 ft 355 kts 223°
2026-04-30 14:31 44.69526 4.87687 23132 ft 356 kts 206°
2026-04-30 14:31 44.67299 4.86194 23132 ft 356 kts 205°
2026-04-30 14:32 44.62870 4.83208 23135 ft 356 kts 206°
2026-04-30 14:32 44.60662 4.81668 23135 ft 356 kts 206°
2026-04-30 14:32 44.58456 4.80109 23138 ft 355 kts 207°
2026-04-30 14:33 44.56256 4.78545 23140 ft 355 kts 207°
2026-04-30 14:33 44.51735 4.75801 23143 ft 355 kts 201°
2026-04-30 14:33 44.49423 4.74597 23144 ft 355 kts 200°
2026-04-30 14:34 44.47108 4.73412 23146 ft 355 kts 200°
2026-04-30 14:34 44.44823 4.72230 23150 ft 355 kts 200°
2026-04-30 14:34 44.42517 4.71017 23153 ft 355 kts 201°
2026-04-30 14:34 44.40222 4.69792 23155 ft 354 kts 201°
2026-04-30 14:35 44.36408 4.67739 23157 ft 354 kts 201°
2026-04-30 14:35 44.33339 4.66089 23158 ft 354 kts 201°
2026-04-30 14:35 44.31046 4.64862 23158 ft 354 kts 201°
2026-04-30 14:36 44.28778 4.63650 23158 ft 354 kts 201°
2026-04-30 14:36 44.26490 4.62427 23159 ft 354 kts 201°
2026-04-30 14:36 44.24199 4.61203 23159 ft 354 kts 201°
2026-04-30 14:36 44.21902 4.59980 23159 ft 353 kts 201°
2026-04-30 14:37 44.19611 4.58763 23159 ft 353 kts 201°
2026-04-30 14:37 44.18095 4.57956 23159 ft 353 kts 201°
2026-04-30 14:37 44.15037 4.56328 23160 ft 353 kts 201°
2026-04-30 14:37 44.13521 4.55520 23160 ft 353 kts 201°
2026-04-30 14:38 44.11230 4.54302 23161 ft 353 kts 201°
2026-04-30 14:38 44.08174 4.52684 23162 ft 352 kts 201°
2026-04-30 14:38 44.05915 4.51489 23162 ft 352 kts 201°
2026-04-30 14:38 44.03635 4.50276 23163 ft 351 kts 201°
2026-04-30 14:39 44.01366 4.49058 23165 ft 351 kts 202°
2026-04-30 14:39 43.99096 4.47834 23166 ft 351 kts 202°
2026-04-30 14:39 43.97593 4.47025 23167 ft 351 kts 202°
2026-04-30 14:40 43.93056 4.44596 23171 ft 350 kts 202°
2026-04-30 14:40 43.90791 4.43381 23173 ft 349 kts 202°
2026-04-30 14:40 43.88537 4.42164 23174 ft 349 kts 202°
2026-04-30 14:40 43.85677 4.40150 22875 ft 355 kts 216°
2026-04-30 14:41 43.83847 4.37853 22356 ft 353 kts 227°
2026-04-30 14:41 43.82752 4.36161 22017 ft 346 kts 230°
2026-04-30 14:41 43.81209 4.33674 21517 ft 338 kts 230°
2026-04-30 14:41 43.79206 4.30466 20853 ft 329 kts 229°
2026-04-30 14:42 43.78217 4.28910 20522 ft 325 kts 229°
2026-04-30 14:42 43.76734 4.26599 20020 ft 319 kts 228°
2026-04-30 14:42 43.75275 4.24340 19516 ft 312 kts 228°
2026-04-30 14:42 43.73845 4.22133 19012 ft 306 kts 228°
2026-04-30 14:43 43.72450 4.19976 18511 ft 299 kts 228°
2026-04-30 14:43 43.71078 4.17857 18009 ft 293 kts 228°
2026-04-30 14:43 43.69363 4.15206 17366 ft 286 kts 228°
2026-04-30 14:43 43.68475 4.13837 17029 ft 283 kts 228°
2026-04-30 14:44 43.67169 4.11829 16526 ft 279 kts 228°
2026-04-30 14:44 43.65890 4.09861 16025 ft 275 kts 228°
2026-04-30 14:44 43.64625 4.07918 15520 ft 270 kts 228°
2026-04-30 14:44 43.63390 4.06014 15024 ft 267 kts 228°
2026-04-30 14:45 43.62167 4.04132 14525 ft 263 kts 228°
2026-04-30 14:45 43.60936 4.02283 14020 ft 261 kts 224°
2026-04-30 14:45 43.59443 4.00947 13518 ft 258 kts 201°
2026-04-30 14:45 43.57691 4.00548 13020 ft 257 kts 180°
2026-04-30 14:46 43.55959 4.00912 12528 ft 257 kts 166°
2026-04-30 14:46 43.54295 4.01757 12029 ft 256 kts 157°
2026-04-30 14:46 43.52715 4.02861 11528 ft 255 kts 153°
2026-04-30 14:46 43.51184 4.04061 11028 ft 254 kts 151°
2026-04-30 14:47 43.49690 4.05319 10524 ft 252 kts 149°
2026-04-30 14:47 43.48467 4.06997 10039 ft 253 kts 122°
2026-04-30 14:47 43.47987 4.09349 9799 ft 264 kts 93°
2026-04-30 14:47 43.48380 4.11841 9552 ft 274 kts 65°
2026-04-30 14:48 43.49564 4.13851 9303 ft 278 kts 39°
2026-04-30 14:48 43.51283 4.14942 9057 ft 279 kts 11°
2026-04-30 14:48 43.53199 4.14857 8809 ft 278 kts 343°
2026-04-30 14:48 43.54857 4.13588 8640 ft 272 kts 315°
2026-04-30 14:49 43.55897 4.11486 8517 ft 263 kts 289°
2026-04-30 14:49 43.56413 4.09100 8392 ft 258 kts 280°
2026-04-30 14:49 43.56813 4.06711 8270 ft 255 kts 279°
2026-04-30 14:49 43.57212 4.04340 8142 ft 253 kts 279°
2026-04-30 14:50 43.58015 3.99638 7891 ft 250 kts 279°
2026-04-30 14:50 43.58407 3.97339 7768 ft 249 kts 279°
2026-04-30 14:51 43.59196 3.92712 7516 ft 247 kts 279°
2026-04-30 14:51 43.59586 3.90412 7394 ft 246 kts 279°
2026-04-30 14:51 43.60360 3.85827 7142 ft 245 kts 279°
2026-04-30 14:52 43.60753 3.83484 7077 ft 256 kts 278°
2026-04-30 14:52 43.61567 3.78548 6991 ft 265 kts 279°
2026-04-30 14:52 43.61977 3.76091 6988 ft 260 kts 279°
2026-04-30 14:53 43.62771 3.71362 6988 ft 249 kts 278°
2026-04-30 14:53 43.63155 3.69077 6977 ft 238 kts 279°
2026-04-30 14:54 43.63873 3.64817 6980 ft 218 kts 278°
2026-04-30 14:54 43.64681 3.60839 6710 ft 222 kts 297°
2026-04-30 14:55 43.67283 3.58909 6018 ft 220 kts
2026-04-30 14:55 43.68696 3.59508 5742 ft 212 kts 31°
2026-04-30 14:55 43.71065 3.61962 5244 ft 216 kts 58°
2026-04-30 14:56 43.71538 3.65733 4931 ft 201 kts 104°
2026-04-30 14:56 43.70624 3.69570 3962 ft 213 kts 115°
2026-04-30 14:57 43.70041 3.71414 3578 ft 207 kts 117°
2026-04-30 14:57 43.68797 3.74816 3036 ft 185 kts 121°
2026-04-30 14:58 43.67602 3.77665 2817 ft 169 kts 124°
2026-04-30 14:58 43.66957 3.79022 2688 ft 166 kts 126°
2026-04-30 14:58 43.65711 3.81496 2459 ft 150 kts 127°
2026-04-30 14:59 43.64604 3.83715 2242 ft 131 kts 127°
2026-04-30 15:00 43.62895 3.86899 1709 ft 136 kts 124°
2026-04-30 15:00 43.61855 3.89059 1328 ft 135 kts 124°
2026-04-30 15:01 43.60793 3.91122 958 ft 130 kts 125°
2026-04-30 15:01 43.60298 3.92150 715 ft 129 kts 123°
2026-04-30 15:01 43.59275 3.94222 372 ft 132 kts 126°
2026-04-30 15:02 43.58793 3.95199 142 ft 120 kts 123°
2026-04-30 15:02 43.58320 3.96156 26 ft 116 kts 125°
2026-04-30 15:03 43.57886 3.97011 25 ft 14 kts 125°
2026-04-30 15:03 43.57763 3.97005 25 ft 11 kts 219°
2026-04-30 15:04 43.57774 3.96837 25 ft 18 kts 304°
2026-04-30 15:04 43.57984 3.96419 25 ft 20 kts 304°
2026-04-30 15:05 43.57995 3.96221 25 ft 7 kts 216°
2026-04-30 15:06 43.57987 3.96091 25 ft 7 kts 303°
2026-04-30 15:06 43.58044 3.95958 25 ft 8 kts 285°
2026-04-30 15:07 43.58086 3.95847 25 ft 6 kts 302°
2026-04-30 15:07 43.58112 3.95759 25 ft 5 kts 253°
2026-04-30 15:08 43.58092 3.95683 25 ft 2 kts 281°
2026-04-30 15:08 43.58101 3.95669 25 ft 2 kts 337°
2026-04-30 15:09 43.58124 3.95677 25 ft 0 kts 19°